Regional Weather Roundup
Issued by NWS

Home | Current Version | Previous Version | Graphics & Text | Print | Product List | Glossary On
Versions: 1 2 3 4 5 6 7 8 9 10 11 12 13 14 15 16 17 18 19 20 21 22 23 24 25 26 27 28 29 30 31 32 33 34 35 36 37 38 39 40 41 42 43 44 45 46 47 48 49 50
000
ASUS43 KOAX 130710
RWRNE

WEATHER ROUNDUP FOR NEBRASKA
NATIONAL WEATHER SERVICE OMAHA NE
200 AM CDT SUN JUL 13 2014

NOTES: SATELLITE DATA IS BEING USED TO AUGMENT CLOUD COVER ABOVE
       12000 FEET.
       "FAIR" INDICATES FEW OR NO CLOUDS BELOW 12,000 FEET WITH NO
       SIGNIFICANT WEATHER AND/OR OBSTRUCTIONS TO VISIBILITY.

  * THESE STATIONS DO NOT REPORT WEATHER SUCH AS RAIN...SNOW OR FOG.

NEZ001>004-019>022-054>056-130800-
NEBRASKA PANHANDLE

CITY           SKY/WX    TMP DP  RH WIND       PRES   REMARKS
SCOTTSBLUFF    PTCLDY    65  64  97 N3        30.26R
ALLIANCE       CLEAR     60  59  96 W5        30.24R
CHADRON        CLEAR     60  58  92 SW7       30.22S
KIMBALL        PTCLDY    61  59  93 W6        30.30S
SIDNEY         PTCLDY    58  54  86 W3        30.28S
$$

NEZ057>060-069>072-079>082-130800-
SOUTHWEST NEBRASKA

CITY           SKY/WX    TMP DP  RH WIND       PRES   REMARKS
NORTH PLATTE   CLEAR     62  60  93 CALM      30.15S
IMPERIAL       PTCLDY    66  62  87 W3        30.20R
LEXINGTON      CLEAR     65  64  95 NW3       30.12F
MCCOOK         MOCLDY    67  65  93 W6        30.15R
OGALLALA       CLEAR     62  60  96 CALM      30.20S
$$

NEZ005>010-023>029-035>040-094-130800-
NORTH CENTRAL NEBRASKA

CITY           SKY/WX    TMP DP  RH WIND       PRES   REMARKS
VALENTINE      CLEAR     64  63  96 W7        30.15R
AINSWORTH      CLEAR     65  63  93 W6        30.14S
BROKEN BOW     CLEAR     65  63  93 CALM      30.12S
O`NEILL        CLEAR     66  62  87 NW3       30.09S
ORD            CLEAR     64  62  93 CALM      30.08S
THEDFORD       CLEAR     65  63  92 NW5       30.17S
$$

NEZ041-046>049-061>064-073>077-083>087-130800-
SOUTH CENTRAL NEBRASKA

CITY           SKY/WX    TMP DP  RH WIND       PRES   REMARKS
GRAND ISLAND   PTCLDY    68  65  90 CALM      30.09R
AURORA         CLEAR     65  65 100 NW3       30.08S
HASTINGS       PTCLDY    68  63  84 N6        30.08S
HEBRON         CLOUDY    73  70  90 CALM      30.06R FOG
HOLDREGE       PTCLDY    67  65  93 N3        30.10F
KEARNEY *      PTCLDY    66  64  94 N3        30.10F
YORK           CLEAR     66  66 100 MISG      30.08R
$$

NEZ011>018-030>034-042>045-130800-
NORTHEAST NEBRASKA

CITY           SKY/WX    TMP DP  RH WIND       PRES   REMARKS
NORFOLK        CLEAR     65  63  93 SW3       30.05R
ALBION         CLEAR     64  62  95 CALM      30.08S
BLAIR          PTCLDY    67  64  89 CALM      30.03S
FREMONT        CLEAR     66  64  94 CALM      30.04
TEKAMAH        CLEAR     64  62  93 SW5       30.02R
WAYNE          CLEAR     64  63  97 S3        30.03S
$$

NEZ050>053-065>068-078-088>093-130800-
SOUTHEAST NEBRASKA

CITY           SKY/WX    TMP DP  RH WIND       PRES   REMARKS
LINCOLN        MOCLDY    69  65  86 N5        30.05S
OMAHA EPPLEY   PTCLDY    70  66  87 S7        30.03R
BEATRICE       LGT RAIN  68  68  99 CALM      30.04S
FALLS CITY     RAIN      72  71  97 W8        30.02R FOG
NEBRASKA CITY  CLOUDY    70  70 100 NE3       30.04R
PLATTSMOUTH    MOCLDY    70  67  89 CALM      30.05R
$$

NEZ044-045-051>053-067-130800-
OMAHA AREA

CITY           SKY/WX    TMP DP  RH WIND       PRES   REMARKS
OMAHA EPPLEY   PTCLDY    70  66  87 S7        30.03R
BLAIR          PTCLDY    67  64  89 CALM      30.03S
FREMONT        CLEAR     66  64  94 CALM      30.04
MILLARD        PTCLDY    69  67  92 CALM      30.04R
PLATTSMOUTH    MOCLDY    70  67  89 CALM      30.05R
WAHOO          FAIR      67  64  90 SW3       30.04S
$$



USA.gov is the U.S. government's official web portal to all federal, state and local government web resources and services.